Time,TemperatureF,DewpointF,PressureIn,WindDirection,WindDirectionDegrees,WindSpeedMPH,WindSpeedGustMPH,Humidity,HourlyPrecipIn,Conditions,Clouds,dailyrainin,SoftwareType,DateUTC
2013-11-01 00:09:00,69.8,63.3,29.67,NE,45,2.0,-999.0,80,-99.99,,,0.00,Acu-Link.com,2013-11-01 04:09:00,
2013-11-01 00:24:00,69.8,63.3,29.66,South,180,2.7,-999.0,80,-99.99,,,0.00,Acu-Link.com,2013-11-01 04:24:00,
2013-11-01 00:40:00,69.8,63.7,29.66,SE,135,2.0,-999.0,81,-99.99,,,0.00,Acu-Link.com,2013-11-01 04:40:00,
2013-11-01 00:55:00,69.8,63.7,29.65,West,270,5.1,-999.0,81,-99.99,,,0.00,Acu-Link.com,2013-11-01 04:55:00,
2013-11-01 01:10:00,69.8,63.7,29.64,East,90,4.7,-999.0,81,-99.99,,,0.00,Acu-Link.com,2013-11-01 05:10:00,
2013-11-01 01:25:00,69.8,63.7,29.63,SSE,157,5.1,-999.0,81,-99.99,,,0.00,Acu-Link.com,2013-11-01 05:25:00,
2013-11-01 01:40:00,68.0,61.6,29.62,WSW,247,4.0,-999.0,80,-99.99,,,0.00,Acu-Link.com,2013-11-01 05:40:00,
2013-11-01 01:56:00,68.0,61.6,29.60,SSE,157,3.1,-999.0,80,-99.99,,,0.00,Acu-Link.com,2013-11-01 05:56:00,
2013-11-01 02:11:00,68.0,61.6,29.59,SSE,157,7.8,-999.0,80,-99.99,,,0.00,Acu-Link.com,2013-11-01 06:11:00,
2013-11-01 02:26:00,68.0,61.6,29.58,South,180,7.2,-999.0,80,-99.99,,,0.00,Acu-Link.com,2013-11-01 06:26:00,
2013-11-01 02:41:00,68.0,61.6,29.57,South,180,4.0,-999.0,80,-99.99,,,0.00,Acu-Link.com,2013-11-01 06:41:00,
2013-11-01 02:56:00,68.0,61.6,29.54,South,180,4.7,-999.0,80,-99.99,,,0.00,Acu-Link.com,2013-11-01 06:56:00,
2013-11-01 03:11:00,68.0,61.6,29.55,SSW,202,11.9,-999.0,80,-99.99,,,0.00,Acu-Link.com,2013-11-01 07:11:00,
2013-11-01 03:27:00,68.0,61.6,29.54,East,90,2.0,-999.0,80,-99.99,,,0.00,Acu-Link.com,2013-11-01 07:27:00,
2013-11-01 03:42:00,68.0,61.6,29.55,West,270,2.0,-999.0,80,-99.99,,,0.00,Acu-Link.com,2013-11-01 07:42:00,
2013-11-01 03:57:00,68.0,61.6,29.56,East,90,5.1,-999.0,80,-99.99,,,0.00,Acu-Link.com,2013-11-01 07:57:00,
2013-11-01 04:12:00,68.0,61.6,29.58,West,270,3.6,-999.0,80,-99.99,,,0.00,Acu-Link.com,2013-11-01 08:12:00,
2013-11-01 04:27:00,68.0,61.2,29.56,NNE,22,2.0,-999.0,79,-99.99,,,0.00,Acu-Link.com,2013-11-01 08:27:00,
2013-11-01 04:42:00,68.0,61.2,29.56,SSE,157,2.7,-999.0,79,-99.99,,,0.00,Acu-Link.com,2013-11-01 08:42:00,
2013-11-01 04:58:00,68.0,61.2,29.55,ENE,67,5.6,-999.0,79,-99.99,,,0.00,Acu-Link.com,2013-11-01 08:58:00,
2013-11-01 05:13:00,68.0,61.2,29.55,North,0,2.7,-999.0,79,-99.99,,,0.00,Acu-Link.com,2013-11-01 09:13:00,
2013-11-01 05:28:00,68.0,60.5,29.54,SSW,202,4.0,-999.0,77,-99.99,,,0.00,Acu-Link.com,2013-11-01 09:28:00,
2013-11-01 05:43:00,68.0,60.1,29.55,NNW,337,2.0,-999.0,76,-99.99,,,0.00,Acu-Link.com,2013-11-01 09:43:00,
2013-11-01 05:58:00,68.0,60.1,29.55,East,90,1.1,-999.0,76,-99.99,,,0.00,Acu-Link.com,2013-11-01 09:58:00,
2013-11-01 06:13:00,68.0,60.1,29.55,SE,135,4.0,-999.0,76,-99.99,,,0.00,Acu-Link.com,2013-11-01 10:13:00,
2013-11-01 06:28:00,68.0,59.8,29.55,ESE,112,6.3,-999.0,75,-99.99,,,0.00,Acu-Link.com,2013-11-01 10:28:00,
2013-11-01 06:44:00,68.0,59.8,29.54,SSE,157,3.6,-999.0,75,-99.99,,,0.00,Acu-Link.com,2013-11-01 10:44:00,
2013-11-01 06:59:00,68.0,59.8,29.54,West,270,4.0,-999.0,75,-99.99,,,0.00,Acu-Link.com,2013-11-01 10:59:00,
2013-11-01 07:14:00,68.0,59.4,29.53,SE,135,3.6,-999.0,74,-99.99,,,0.00,Acu-Link.com,2013-11-01 11:14:00,
2013-11-01 07:29:00,68.0,59.8,29.53,North,0,2.0,-999.0,75,-99.99,,,0.00,Acu-Link.com,2013-11-01 11:29:00,